Weather reports worldwide

Advertisment
Rovaniemi Rautatieasema, Finland (2847): temperature & dewpoint: 13.08.2019 20:00:00 - 19.08.2019 20:00:00 (EEST)Rovaniemi Rautatieasema, Finland (2847): wind speed & gusts: 13.08.2019 20:00:00 - 19.08.2019 20:00:00 (EEST)Rovaniemi Rautatieasema, Finland (2847): wind direction: 13.08.2019 20:00:00 - 19.08.2019 20:00:00 (EEST)Rovaniemi Rautatieasema, Finland (2847): reduced air pressure: 13.08.2019 20:00:00 - 19.08.2019 20:00:00 (EEST)Rovaniemi Rautatieasema, Finland (2847): visibility: 13.08.2019 20:00:00 - 19.08.2019 20:00:00 (EEST)
Date & Time tt [°C] td [°C] ff [km/h] ff [kn] fx [km/h] fx [kn] dd ppp [hPa] vv [km]
19.08.2019 20:00:00 16,1 13,1 22 12 41 22 SSW 1001,7 50
19.08.2019 19:00:00 16,0 14,3 16 9 35 19 SSE 1001,3 43
19.08.2019 18:00:00 15,4 14,2 14 7 35 19 SSE 1001,1 43
19.08.2019 17:00:00 14,4 13,5 15 8 45 24 SE 1001,0 8
19.08.2019 16:00:00 14,3 13,0 19 10 39 21 ESE 1001,3 7
19.08.2019 15:00:00 14,1 12,8 16 9 37 20 ESE 1001,9 8
19.08.2019 14:00:00 15,5 12,2 14 8 26 14 ESE 1002,3 37
19.08.2019 13:00:00 15,9 11,3 13 7 26 14 ESE 1002,9 41
19.08.2019 12:00:00 16,6 10,6 11 6 32 18 ESE 1003,6 39
19.08.2019 11:00:00 16,2 10,2 13 7 26 14 SE 1004,6 50
19.08.2019 10:00:00 15,5 10,3 7 4 16 9 ESE 1005,2 45
19.08.2019 09:00:00 14,2 10,0 10 5 20 11 E 1005,8 50
19.08.2019 08:00:00 13,5 9,6 11 6 22 12 E 1006,3 37
19.08.2019 07:00:00 13,5 9,7 13 7 23 13 E 1006,8 50
19.08.2019 06:00:00 13,5 10,8 10 5 20 11 E 1007,4 50
19.08.2019 05:00:00 13,7 11,9 9 5 17 9 ESE 1007,9 46
19.08.2019 04:00:00 14,0 12,8 10 5 20 11 ESE 1008,4 39
19.08.2019 03:00:00 14,0 13,0 11 6 18 10 ESE 1008,8 39
19.08.2019 02:00:00 14,4 13,1 10 5 30 16 ESE 1009,0 43
19.08.2019 01:00:00 14,5 13,4 10 6 27 15 SE 1009,4 35
19.08.2019 00:00:00 14,7 13,7 10 6 20 11 SSE 1009,9 15
18.08.2019 23:00:00 15,1 13,8 10 5 19 11 S 1009,8 35
18.08.2019 22:00:00 14,9 14,2 8 5 18 10 SE 1009,9 18
18.08.2019 21:00:00 15,0 14,3 5 3 15 8 ESE 1010,0 20
18.08.2019 20:00:00 14,9 13,7 7 4 22 12 S 1010,3 28
18.08.2019 19:00:00 15,4 13,5 11 6 26 14 SSW 1010,3 25
18.08.2019 18:00:00 16,8 14,9 9 5 33 18 SSW 1010,2 3,1
18.08.2019 17:00:00 18,6 13,6 14 7 32 17 S 1009,7 48
18.08.2019 16:00:00 18,4 13,3 16 9 43 23 S 1009,5 44
18.08.2019 15:00:00 17,7 13,5 23 12 39 21 S 1009,9 39
18.08.2019 14:00:00 18,4 13,8 18 10 39 21 S 1009,6 37
18.08.2019 13:00:00 19,7 12,7 19 11 41 22 S 1009,2 44
18.08.2019 12:00:00 19,9 11,0 20 11 35 19 SSE 1009,4 39
18.08.2019 11:00:00 19,1 12,6 16 9 34 18 SSE 1009,7 37
18.08.2019 10:00:00 16,5 12,9 16 9 29 16 S 1009,9 43
18.08.2019 09:00:00 15,7 13,2 13 7 26 14 S 1009,9 49
18.08.2019 08:00:00 15,3 13,0 15 8 29 15 S 1009,8 49
18.08.2019 07:00:00 15,2 13,1 11 6 23 12 S 1009,7 45
18.08.2019 06:00:00 15,3 13,2 10 6 28 15 S 1009,5 48
18.08.2019 05:00:00 15,5 13,4 12 6 34 18 S 1009,4 50
18.08.2019 04:00:00 15,0 13,2 11 6 22 12 SSE 1009,5 49
18.08.2019 03:00:00 15,1 13,4 10 6 19 10 SSE 1009,6 40
18.08.2019 02:00:00 15,9 13,8 10 6 29 15 SSW 1009,4 50
18.08.2019 01:00:00 16,1 14,2 15 8 31 17 S 1008,9 45
18.08.2019 00:00:00 14,6 14,0 6 4 11 6 ESE 1008,4 15
17.08.2019 23:00:00 14,9 14,4 3 2 18 10 ENE 1008,9 14
17.08.2019 22:00:00 15,3 14,5 5 3 12 6 ESE 1009,3 19
17.08.2019 21:00:00 16,1 14,5 6 3 15 8 SE 1009,5 29
17.08.2019 20:00:00 16,7 14,2 7 4 14 8 S 1009,5 41
17.08.2019 19:00:00 16,5 14,3 9 5 23 12 S 1009,6 36
17.08.2019 18:00:00 15,9 14,2 11 6 19 11 S 1009,7 24
17.08.2019 17:00:00 15,1 14,2 10 5 17 9 S 1010,0 9
17.08.2019 16:00:00 15,0 13,7 9 5 34 18 S 1010,1 11
17.08.2019 15:00:00 16,5 12,8 14 8 34 19 S 1010,1 35
17.08.2019 14:00:00 16,6 12,3 16 9 34 18 S 1009,9 43
17.08.2019 13:00:00 16,1 12,4 12 6 23 12 SSW 1009,7 47
17.08.2019 12:00:00 14,9 12,3 14 7 28 15 SSW 1009,9 32
17.08.2019 11:00:00 16,3 10,8 13 7 23 12 SSW 1009,5 39
17.08.2019 10:00:00 15,4 10,1 14 7 23 12 S 1009,5 47
17.08.2019 09:00:00 14,3 9,2 12 6 23 13 SSW 1009,6 49
17.08.2019 08:00:00 13,8 9,6 6 3 - - SSW 1009,8 47
17.08.2019 07:00:00 13,1 10,3 10 5 16 9 S 1010,0 38
17.08.2019 06:00:00 12,4 10,5 8 5 17 9 S 1010,0 43
17.08.2019 05:00:00 12,2 10,2 7 4 16 9 S 1010,0 43
17.08.2019 04:00:00 12,1 10,2 8 5 16 8 S 1010,0 46
17.08.2019 03:00:00 12,0 9,6 5 3 19 10 S 1010,0 50
17.08.2019 02:00:00 12,4 9,8 5 3 15 8 SSW 1010,0 50
17.08.2019 01:00:00 11,9 10,1 4 2 14 8 SSW 1010,0 50
17.08.2019 00:00:00 12,7 11,2 7 4 16 9 S 1010,0 47
16.08.2019 23:00:00 13,4 11,7 8 5 14 8 S 1009,8 49
16.08.2019 22:00:00 14,7 11,9 7 4 25 14 S 1009,6 50
16.08.2019 21:00:00 16,0 12,3 8 4 16 9 SSW 1009,2 41
16.08.2019 20:00:00 16,5 10,9 7 4 12 7 SE 1009,1 37
16.08.2019 19:00:00 16,7 10,7 6 3 11 6 SE 1009,0 42
16.08.2019 18:00:00 16,9 10,3 5 3 10 6 ESE 1009,1 42
16.08.2019 17:00:00 16,3 9,7 4 2 13 7 NNE 1009,2 38
16.08.2019 16:00:00 15,8 10,2 7 4 14 8 NE 1009,4 31
16.08.2019 15:00:00 14,9 9,9 5 3 12 6 NE 1009,4 38
16.08.2019 14:00:00 14,2 9,6 6 3 10 5 ESE 1009,4 36
16.08.2019 13:00:00 13,8 9,3 4 2 11 6 NE 1009,2 40
16.08.2019 12:00:00 13,8 10,1 5 3 16 9 NE 1008,7 34
16.08.2019 11:00:00 13,5 10,3 6 3 13 7 ENE 1008,2 36
16.08.2019 10:00:00 13,3 11,3 4 2 11 6 NE 1007,8 38
16.08.2019 09:00:00 11,9 10,8 5 3 11 6 NNE 1007,6 35
16.08.2019 08:00:00 10,8 10,1 6 3 14 8 NNE 1007,2 30
16.08.2019 07:00:00 9,8 9,4 3 2 10 6 N 1006,8 22
16.08.2019 06:00:00 9,0 8,7 4 2 11 6 N 1006,4 3,7
16.08.2019 05:00:00 9,5 9,1 3 2 13 7 NW 1005,9 8
16.08.2019 04:00:00 10,2 9,8 5 3 11 6 N 1005,3 11
16.08.2019 03:00:00 10,7 10,3 5 3 12 6 N 1005,0 11
16.08.2019 02:00:00 11,3 10,8 4 2 11 6 NNE 1004,3 21
16.08.2019 01:00:00 11,8 11,3 5 3 12 6 NNE 1003,7 24
16.08.2019 00:00:00 12,5 12,0 5 3 10 5 N 1003,4 21
15.08.2019 23:00:00 12,8 12,5 4 2 9 5 NNE 1002,9 16
15.08.2019 22:00:00 13,3 12,9 4 2 9 5 N 1002,4 17
15.08.2019 21:00:00 14,2 13,4 5 3 11 6 NNW 1002,0 27
15.08.2019 20:00:00 15,1 12,8 4 2 13 7 N 1001,7 45
15.08.2019 19:00:00 14,9 13,1 6 3 9 5 NNW 1001,4 45
15.08.2019 18:00:00 14,9 13,4 4 2 13 7 NNW 1001,2 50
15.08.2019 17:00:00 15,7 12,9 4 2 11 6 N 1000,9 14
15.08.2019 16:00:00 16,6 13,2 7 4 14 7 NE 1000,6 16
15.08.2019 15:00:00 14,6 13,1 5 3 14 8 ENE 1000,5 21
15.08.2019 14:00:00 15,9 13,4 5 3 13 7 SE 1000,4 31
15.08.2019 13:00:00 16,0 14,0 5 3 11 6 ENE 1000,4 41
15.08.2019 12:00:00 14,8 13,7 3 2 8 5 NE 1000,4 13
15.08.2019 11:00:00 14,3 12,9 4 2 - - SSE 1000,4 40
15.08.2019 10:00:00 - - - - - - - - -
15.08.2019 09:00:00 - - - - - - - - -
15.08.2019 08:00:00 13,7 13,3 5 3 11 6 NE 1000,4 15
15.08.2019 07:00:00 13,6 13,1 5 3 13 7 ENE 1000,5 13
15.08.2019 06:00:00 13,5 13,0 4 2 9 5 ENE 1000,6 21
15.08.2019 05:00:00 13,4 13,0 4 2 8 5 ESE 1000,8 13
15.08.2019 04:00:00 13,5 13,1 5 3 9 5 ENE 1000,8 10
15.08.2019 03:00:00 13,8 13,3 3 2 5 3 ENE 1000,9 19
15.08.2019 02:00:00 14,1 13,6 3 2 6 4 E 1001,0 19
15.08.2019 01:00:00 14,0 13,6 3 2 6 3 NE 1001,1 19
15.08.2019 00:00:00 13,9 13,4 2 1 6 4 E 1001,3 25
14.08.2019 23:00:00 14,1 13,6 2 1 6 3 SSE 1001,4 19
14.08.2019 22:00:00 14,5 14,0 3 2 6 3 ESE 1001,3 18
14.08.2019 21:00:00 15,4 14,6 2 1 5 3 ENE 1001,3 24
14.08.2019 20:00:00 16,3 14,1 6 3 9 5 SSW 1001,3 34
14.08.2019 19:00:00 16,5 14,3 5 3 10 5 WNW 1001,3 40
14.08.2019 18:00:00 17,1 14,2 7 4 14 8 SW 1001,2 45
14.08.2019 17:00:00 16,7 13,1 6 4 17 9 SSW 1001,3 48
14.08.2019 16:00:00 17,5 13,1 11 6 20 11 SW 1001,3 35
14.08.2019 15:00:00 16,6 15,1 6 3 10 5 WSW 1001,4 37
14.08.2019 14:00:00 15,8 14,7 4 2 13 7 W 1001,5 11
14.08.2019 13:00:00 18,0 13,2 5 3 11 6 S 1001,4 32
14.08.2019 12:00:00 17,1 13,8 5 3 11 6 E 1001,6 47
14.08.2019 11:00:00 15,5 13,9 4 2 10 6 SE 1001,9 39
14.08.2019 10:00:00 15,0 13,8 4 2 14 8 E 1002,0 27
14.08.2019 09:00:00 14,5 13,7 6 4 11 6 NE 1002,1 13
14.08.2019 08:00:00 14,2 13,8 6 3 10 6 NE 1002,2 12
14.08.2019 07:00:00 13,8 13,5 4 2 8 4 NE 1002,2 1,1
14.08.2019 06:00:00 13,5 13,2 3 2 7 4 E 1002,4 1,0
14.08.2019 05:00:00 13,6 13,1 4 2 8 4 ESE 1002,5 13
14.08.2019 04:00:00 13,7 13,2 3 1 7 4 ESE 1002,6 19
14.08.2019 03:00:00 13,8 13,2 3 2 8 4 ESE 1002,7 28
14.08.2019 02:00:00 14,1 13,4 4 2 8 4 E 1002,7 35
14.08.2019 01:00:00 14,1 13,5 3 2 7 4 E 1002,8 36
14.08.2019 00:00:00 14,3 13,5 4 2 6 3 ESE 1002,9 45
13.08.2019 23:00:00 14,3 13,8 3 2 6 4 E 1002,9 27
13.08.2019 22:00:00 15,4 14,0 3 2 7 4 ESE 1002,9 47
13.08.2019 21:00:00 16,3 14,0 2 1 12 6 SE 1003,1 45
13.08.2019 20:00:00 16,7 14,4 5 3 9 5 SE 1003,2 42

tt = temperature
td = dewpoint
ff = wind speed
fx = gusts
dd = wind direction
ppp = reduced air pressure
vv = visibility

Next stations